Regional Weather Roundup
Issued by NWS

Home | Current Version | Previous Version | Text Only | Print | Product List | Glossary On
Versions: 1 2 3 4 5 6 7 8 9 10 11 12 13 14 15 16 17 18 19 20 21 22 23 24 25 26 27 28 29 30 31 32 33 34 35 36 37 38 39 40 41 42 43 44 45 46 47 48 49 50
000
ASUS43 KTOP 261808
RWRKS

WEATHER ROUNDUP FOR KANSAS
NATIONAL WEATHER SERVICE GOODLAND KS
100 PM CDT TUE JUL 26 2016

NOTE:  "FAIR" INDICATES FEW OR NO CLOUDS BELOW 12,000 FEET WITH NO
SIGNIFICANT WEATHER AND/OR OBSTRUCTIONS TO VISIBILITY.

KSZ001>006-013>018-027>032-041>047-261900-
NORTHWEST KANSAS

CITY           SKY/WX    TMP DP  RH WIND       PRES   REMARKS
GOODLAND       SUNNY     80  67  64 S17       30.10F
6HR MIN TEMP:  67; 6HR MAX TEMP:  80;

HAYS           SUNNY     81  64  57 S5        30.08S
HILL CITY      SUNNY     83  67  58 VRB7      30.07F
6HR MIN TEMP:  64; 6HR MAX TEMP:  84;

RUSSELL        MOSUNNY   85  68  56 NE3       30.05F
6HR MIN TEMP:  67; 6HR MAX TEMP:  85;

$$

KSZ061>065-074>080-084>089-261900-
SOUTHWEST KANSAS

CITY           SKY/WX    TMP DP  RH WIND       PRES   REMARKS
DODGE CITY     SUNNY     82  68  62 SE9       30.09F
6HR MIN TEMP:  68; 6HR MAX TEMP:  82;

ELKHART          N/A     82  70  67 SE7         N/A
GARDEN CITY    SUNNY     83  69  62 SE7       30.09F
6HR MIN TEMP:  69; 6HR MAX TEMP:  84;

GREAT BEND     CLOUDY    82  66  57 E5        30.06F
LIBERAL        SUNNY     88  70  55 SE8       30.09F
PRATT          PTSUNNY   79  66  64 NE5       30.07F
6HR MIN TEMP:  68; 6HR MAX TEMP:  80;

$$

KSZ066>073-081>083-090>101-261900-
SOUTHEAST KANSAS

CITY           SKY/WX    TMP DP  RH WIND       PRES   REMARKS
CHANUTE        CLOUDY    84  73  69 NE8       30.02F
6HR MIN TEMP:  74; 6HR MAX TEMP:  85;

COFFEYVILLE    PTSUNNY   87  76  69 NE9       30.00F HX  97
6HR MIN TEMP:  75; 6HR MAX TEMP:  87;

HUTCHINSON     MOSUNNY   87  69  54 VRB6      30.05F
6HR MIN TEMP:  71; 6HR MAX TEMP:  88;

MEDICINE LODGE   N/A     86  66  51 SE7       30.03F
NEWTON         PTSUNNY   82  73  74 E6        30.06F
PARSONS        PTSUNNY   84  75  74 E6        30.03F
                                      6HR PCP: TRACE;

WICHITA INTL   PTSUNNY   86  71  60 E12       30.04F
6HR MIN TEMP:  74; 6HR MAX TEMP:  87;

WICHITA JABRA  MOSUNNY   85  72  65 E8        30.04F
6HR MIN TEMP:  71; 6HR MAX TEMP:  85;

WICHITA MCCONL MOSUNNY   86  71  60 VRB6      30.04F
WINFIELD       MOSUNNY   84  72  67 SE8       30.04F
6HR MIN TEMP:  76; 6HR MAX TEMP:  86;

$$

KSZ007>012-019>026-033>040-048>060-102>105-261900-
NORTHEAST KANSAS

CITY           SKY/WX    TMP DP  RH WIND       PRES   REMARKS
CONCORDIA      MOSUNNY   83  69  62 E5        30.07F
6HR MIN TEMP:  62; 6HR MAX TEMP:  84;

EMPORIA        CLOUDY    84  70  62 E12       30.05F
6HR MIN TEMP:  72; 6HR MAX TEMP:  84;

LAWRENCE       MOSUNNY   85  69  58 E6        30.05F
6HR MIN TEMP:  67; 6HR MAX TEMP:  85;

MANHATTAN      MOSUNNY   85  69  58 E10       30.05S
6HR MIN TEMP:  67; 6HR MAX TEMP:  85;

MARYSVILLE     SUNNY     86  66  51 SE8       30.07S
OLATHE IND     MOSUNNY   85  66  53 E12       30.06F
6HR MIN TEMP:  68; 6HR MAX TEMP:  85;

OLATHE EXE     MOSUNNY   84  67  56 NE6       30.06F
6HR MIN TEMP:  70; 6HR MAX TEMP:  84;

SALINA         PTSUNNY   88  70  55 SE8       30.05F
6HR MIN TEMP:  69; 6HR MAX TEMP:  88;

TOPEKA BILLARD SUNNY     85  66  53 E8        30.05F
6HR MIN TEMP:  66; 6HR MAX TEMP:  86;

TOPEKA FORBES  SUNNY     86  67  52 E6        30.06S
6HR MIN TEMP:  69; 6HR MAX TEMP:  87;

$$




USA.gov is the U.S. government's official web portal to all federal, state and local government web resources and services.